User: anonymous   Login
Location: Gravenhurst
(44.9196°N, 79.3742°W)
Time: 19:35:52
(UTC-05:00)
Language:

Envisat - Orbit

View from above orbital plane
View from above orbital plane
View from above satellite
View from above satellite

Ground track
Ground track

The orbit data is extracted from the following two-line orbital elements,

1 27386U 02009A   19315.65837142  .00000005  00000-0  14993-4 0  9997
2 27386  98.1433 329.1732 0001281  95.5669 341.6956 14.37962413927175
Epoch (UTC): 11 November 2019 15:48:03
Eccentricity: 0.0001281
inclination: 98.1433°
perigee height: 764 km
apogee height: 766 km
right ascension of ascending node: 329.1732°
argument of perigee: 95.5669°
revolutions per day: 14.37962413
mean anomaly at epoch: 341.6956°
orbit number at epoch: 92717

The dashed part of the orbit path shows where the satellite is in the earth's shadow,  

DLR